Satellite: NOAA-11 Catalog number: 19531 Epoch time: 13199.27618066 Element set: 438 Inclination: 098.7103 deg RA of node: 281.5753 deg Eccentricity: 0.0011771 Arg of perigee: 167.7383 deg Mean anomaly: 229.0225 deg Mean motion: 14.15021671 rev/day Decay rate: 4.9e-07 rev/day^2 Epoch rev: 28052 Checksum: 297
Satellite: NOAA-12 Catalog number: 21263 Epoch time: 13199.50645204 Element set: 903 Inclination: 098.6959 deg RA of node: 224.6428 deg Eccentricity: 0.0014978 Arg of perigee: 127.1817 deg Mean anomaly: 044.1875 deg Mean motion: 14.25576743 rev/day Decay rate: 3.7e-07 rev/day^2 Epoch rev: 15301 Checksum: 312
Satellite: MET-3/5 Catalog number: 21655 Epoch time: 13199.77647567 Element set: 739 Inclination: 082.5532 deg RA of node: 231.9747 deg Eccentricity: 0.0014163 Arg of perigee: 055.3813 deg Mean anomaly: 304.8643 deg Mean motion: 13.17051962 rev/day Decay rate: -3.98e-06 rev/day^2 Epoch rev: 5409 Checksum: 328
Satellite: MET-2/21 Catalog number: 22782 Epoch time: 13199.16480279 Element set: 792 Inclination: 082.5479 deg RA of node: 078.3465 deg Eccentricity: 0.0023713 Arg of perigee: 121.5473 deg Mean anomaly: 047.6248 deg Mean motion: 13.83709761 rev/day Decay rate: 1.1e-07 rev/day^2 Epoch rev: 392 Checksum: 314
Satellite: OKEAN-4 Catalog number: 23317 Epoch time: 13199.83128472 Element set: 272 Inclination: 082.5382 deg RA of node: 020.1715 deg Eccentricity: 0.0022621 Arg of perigee: 120.8491 deg Mean anomaly: 070.2863 deg Mean motion: 14.84543603 rev/day Decay rate: 6.34e-06 rev/day^2 Epoch rev: 1363 Checksum: 271
Satellite: NOAA-14 Catalog number: 23455 Epoch time: 13199.49385428 Element set: 385 Inclination: 098.8026 deg RA of node: 283.4580 deg Eccentricity: 0.0008412 Arg of perigee: 266.9666 deg Mean anomaly: 163.6872 deg Mean motion: 14.13913435 rev/day Decay rate: 2.9e-07 rev/day^2 Epoch rev: 95679 Checksum: 350
Satellite: NOAA-15 Catalog number: 25338 Epoch time: 13199.79776576 Element set: 806 Inclination: 098.7261 deg RA of node: 189.8291 deg Eccentricity: 0.0011535 Arg of perigee: 041.0914 deg Mean anomaly: 319.1620 deg Mean motion: 14.25244436 rev/day Decay rate: 2.49e-06 rev/day^2 Epoch rev: 78935 Checksum: 337
Satellite: RESURS Catalog number: 25394 Epoch time: 13199.05476601 Element set: 423 Inclination: 098.3642 deg RA of node: 173.4180 deg Eccentricity: 0.0002330 Arg of perigee: 132.4428 deg Mean anomaly: 269.2264 deg Mean motion: 14.24333454 rev/day Decay rate: -2.3e-07 rev/day^2 Epoch rev: 78075 Checksum: 279
Satellite: FENGYUN1 Catalog number: 25730 Epoch time: 13199.47699906 Element set: 919 Inclination: 098.8789 deg RA of node: 158.6060 deg Eccentricity: 0.0024519 Arg of perigee: 324.0222 deg Mean anomaly: 184.1857 deg Mean motion: 14.10578824 rev/day Decay rate: 2.01e-06 rev/day^2 Epoch rev: 73045 Checksum: 326
Satellite: OKEAN-0 Catalog number: 25860 Epoch time: 13199.80584044 Element set: 997 Inclination: 097.9928 deg RA of node: 161.8365 deg Eccentricity: 0.0001948 Arg of perigee: 086.4375 deg Mean anomaly: 001.1142 deg Mean motion: 14.74645704 rev/day Decay rate: 2.60e-06 rev/day^2 Epoch rev: 75301 Checksum: 316
Satellite: NOAA-16 Catalog number: 26536 Epoch time: 13199.69743520 Element set: 288 Inclination: 099.0398 deg RA of node: 252.7664 deg Eccentricity: 0.0011148 Arg of perigee: 050.0791 deg Mean anomaly: 310.1834 deg Mean motion: 14.12896811 rev/day Decay rate: 1.60e-06 rev/day^2 Epoch rev: 66102 Checksum: 306
Satellite: NOAA-17 Catalog number: 27453 Epoch time: 13199.80269765 Element set: 201 Inclination: 098.3118 deg RA of node: 212.2034 deg Eccentricity: 0.0012728 Arg of perigee: 074.4645 deg Mean anomaly: 285.8428 deg Mean motion: 14.24604819 rev/day Decay rate: 1.60e-06 rev/day^2 Epoch rev: 57522 Checksum: 306
Satellite: NOAA-18 Catalog number: 28654 Epoch time: 13199.48923455 Element set: 690 Inclination: 099.1021 deg RA of node: 168.1600 deg Eccentricity: 0.0015387 Arg of perigee: 119.3906 deg Mean anomaly: 031.0943 deg Mean motion: 14.11839138 rev/day Decay rate: 1.80e-06 rev/day^2 Epoch rev: 42047 Checksum: 304
Satellite: NOAA-19 Catalog number: 33591 Epoch time: 13199.51148925 Element set: 870 Inclination: 098.9044 deg RA of node: 141.3315 deg Eccentricity: 0.0013673 Arg of perigee: 346.3539 deg Mean anomaly: 144.3926 deg Mean motion: 14.11528162 rev/day Decay rate: -3.4e-07 rev/day^2 Epoch rev: 22891 Checksum: 310
/EX SB KEPS @ AMSAT $ORB13199.M Orbital Elements 13199.MISC
HR AMSAT ORBITAL ELEMENTS FOR MANNED AND MISCELLANEOUS SATELLITES FROM WA5QGD FORT WORTH,TX July 18, 2013 BID: ORB13199.M TO ALL RADIO AMATEURS BT
Satellite: HUBBLE Catalog number: 20580 Epoch time: 13199.79012444 Element set: 284 Inclination: 028.4709 deg RA of node: 065.6327 deg Eccentricity: 0.0003268 Arg of perigee: 331.8078 deg Mean anomaly: 117.4757 deg Mean motion: 15.03774398 rev/day Decay rate: 1.182e-05 rev/day^2 Epoch rev: 7445 Checksum: 310
Satellite: ISS Catalog number: 25544 Epoch time: 13199.83963120 Element set: 213 Inclination: 051.6503 deg RA of node: 311.4804 deg Eccentricity: 0.0004959 Arg of perigee: 195.4743 deg Mean anomaly: 254.6791 deg Mean motion: 15.49909686 rev/day Decay rate: 9.596e-05 rev/day^2 Epoch rev: 83961 Checksum: 337
Satellite: CO-58 Catalog number: 28895 Epoch time: 13199.58259091 Element set: 525 Inclination: 097.8666 deg RA of node: 053.3684 deg Eccentricity: 0.0016980 Arg of perigee: 347.6176 deg Mean anomaly: 012.4606 deg Mean motion: 14.61168685 rev/day Decay rate: 3.44e-06 rev/day^2 Epoch rev: 41152 Checksum: 347
Satellite: FALCON Catalog number: 30776 Epoch time: 13199.80641777 Element set: 654 Inclination: 035.4318 deg RA of node: 008.1089 deg Eccentricity: 0.0002024 Arg of perigee: 246.4544 deg Mean anomaly: 240.6497 deg Mean motion: 15.10961222 rev/day Decay rate: 4.197e-05 rev/day^2 Epoch rev: 35020 Checksum: 288
Satellite: MAST Catalog number: 31126 Epoch time: 13199.02629529 Element set: 804 Inclination: 097.8827 deg RA of node: 193.1907 deg Eccentricity: 0.0091853 Arg of perigee: 317.1097 deg Mean anomaly: 074.6939 deg Mean motion: 14.54622576 rev/day Decay rate: 2.83e-06 rev/day^2 Epoch rev: 33180 Checksum: 325
Satellite: CAPE1 Catalog number: 31130 Epoch time: 13198.47305511 Element set: 807 Inclination: 097.8997 deg RA of node: 189.0338 deg Eccentricity: 0.0099615 Arg of perigee: 334.8576 deg Mean anomaly: 024.7789 deg Mean motion: 14.53552775 rev/day Decay rate: 3.96e-06 rev/day^2 Epoch rev: 33117 Checksum: 342
Satellite: COMPASS Catalog number: 32787 Epoch time: 13199.72655749 Element set: 678 Inclination: 097.7510 deg RA of node: 257.4708 deg Eccentricity: 0.0014601 Arg of perigee: 193.9963 deg Mean anomaly: 166.0850 deg Mean motion: 14.85651663 rev/day Decay rate: 1.387e-05 rev/day^2 Epoch rev: 28264 Checksum: 350
Satellite: AAUSAT2 Catalog number: 32788 Epoch time: 13199.11928271 Element set: 662 Inclination: 097.7519 deg RA of node: 257.5336 deg Eccentricity: 0.0014066 Arg of perigee: 195.2321 deg Mean anomaly: 164.8473 deg Mean motion: 14.86123365 rev/day Decay rate: 1.442e-05 rev/day^2 Epoch rev: 28259 Checksum: 324
Satellite: DO-64 Catalog number: 32789 Epoch time: 13199.16610947 Element set: 691 Inclination: 097.7674 deg RA of node: 261.5385 deg Eccentricity: 0.0013800 Arg of perigee: 187.7104 deg Mean anomaly: 247.2599 deg Mean motion: 14.88843600 rev/day Decay rate: 2.944e-05 rev/day^2 Epoch rev: 28273 Checksum: 352
Satellite: CO-66 Catalog number: 32791 Epoch time: 13198.85415895 Element set: 656 Inclination: 097.7506 deg RA of node: 255.9445 deg Eccentricity: 0.0015153 Arg of perigee: 198.5457 deg Mean anomaly: 273.6121 deg Mean motion: 14.84760207 rev/day Decay rate: 8.31e-06 rev/day^2 Epoch rev: 28242 Checksum: 341
Satellite: RS-30 Catalog number: 32953 Epoch time: 13199.69223805 Element set: 40 Inclination: 082.4995 deg RA of node: 048.5988 deg Eccentricity: 0.0018480 Arg of perigee: 160.7834 deg Mean anomaly: 199.3945 deg Mean motion: 12.43035251 rev/day Decay rate: 1.0e-07 rev/day^2 Epoch rev: 23382 Checksum: 312
Satellite: METEOR-M Catalog number: 35865 Epoch time: 13199.75110576 Element set: 632 Inclination: 098.5996 deg RA of node: 251.3965 deg Eccentricity: 0.0002677 Arg of perigee: 004.5290 deg Mean anomaly: 355.5908 deg Mean motion: 14.21889863 rev/day Decay rate: -2.4e-07 rev/day^2 Epoch rev: 19895 Checksum: 347
Satellite: RS-38 Catalog number: 35869 Epoch time: 13199.77895220 Element set: 589 Inclination: 098.5932 deg RA of node: 251.3290 deg Eccentricity: 0.0004811 Arg of perigee: 353.7378 deg Mean anomaly: 006.3736 deg Mean motion: 14.22137146 rev/day Decay rate: 2.3e-07 rev/day^2 Epoch rev: 19898 Checksum: 342
Satellite: JUGNU Catalog number: 37839 Epoch time: 13199.80860723 Element set: 423 Inclination: 019.9620 deg RA of node: 115.1804 deg Eccentricity: 0.0018864 Arg of perigee: 271.6946 deg Mean anomaly: 125.5357 deg Mean motion: 14.12167419 rev/day Decay rate: 3.33e-06 rev/day^2 Epoch rev: 9137 Checksum: 307
Satellite: SRMSAT Catalog number: 37841 Epoch time: 13199.21851670 Element set: 425 Inclination: 019.9721 deg RA of node: 131.4257 deg Eccentricity: 0.0011803 Arg of perigee: 217.1402 deg Mean anomaly: 261.5519 deg Mean motion: 14.10235709 rev/day Decay rate: 3.23e-06 rev/day^2 Epoch rev: 9115 Checksum: 263
Satellite: RAX-2 Catalog number: 37853 Epoch time: 13198.65179541 Element set: 543 Inclination: 101.7097 deg RA of node: 066.4117 deg Eccentricity: 0.0233956 Arg of perigee: 300.1805 deg Mean anomaly: 136.4253 deg Mean motion: 14.83915622 rev/day Decay rate: 3.072e-05 rev/day^2 Epoch rev: 9296 Checksum: 307
